Weather History for Pagosa Springs, CO

Change the Weather History Date:

Tuesday, September 17, 2013

  Actual Average (KDRO) Record (KDRO)
Temperature  
Mean Temperature 61 °F 58 °F  
Max Temperature 72 °F 75 °F 87 °F (2000)
Min Temperature 50 °F 42 °F 25 °F (2006)
Degree Days  
Heating Degree Days 4 7  
Month to date heating degree days 72  
Since 1 July heating degree days 101  
Cooling Degree Days 0 0  
Month to date cooling degree days 3  
Year to date cooling degree days 240  
Growing Degree Days 11 (Base 50)    
Moisture  
Dew Point 49 °F    
Average Humidity 68    
Maximum Humidity 95    
Minimum Humidity 36    
Precipitation  
Precipitation 0.00 in 0.08 in 1.79 in (1990)
Month to date precipitation 1.12  
Year to date precipitation 11.09  
Sea Level Pressure  
Sea Level Pressure 30.27 in    
Wind  
Wind Speed 3 mph (SSW)    
Max Wind Speed 8 mph    
Max Gust Speed -    
Visibility 10 miles    
Events Rain , Thunderstorm    
T = Trace of Precipitation, MM = Missing Value Source: NWS Daily Summary

Daily Weather History Graph

Daily Weather History Graph

Search for Another Location

Airport:

Trip Planner

Search our weather history database for the weather conditions in past years. The results will help you decide how hot, cold, wet, or windy it might be!

Date:

Astronomy

Sep. 17, 2013 Rise Set
Actual Time 6:52 AM MDT 7:12 PM MDT
Civil Twilight 6:26 AM MDT 7:38 PM MDT
Nautical Twilight 5:55 AM MDT 8:08 PM MDT
Astronomical Twilight 5:24 AM MDT 8:40 PM MDT
Moon 6:00 PM MDT (9/17) 4:51 AM MDT (9/17)
Length of Visible Light 13h 12m
Length of Day
12h 20m
Waxing Gibbous, 96% of the Moon is Illuminated
Sep 17
Waxing Gibbous
Sep 19
Full
Sep 26
Last Quarter
Oct 4
New
Oct 11
First Quarter

Hourly Weather History & Observations

Time (MDT) Temp. Dew Point Humidity Pressure Visibility Wind Dir Wind Speed Gust Speed Precip Events Conditions
12:15 AM 55.9 °F 49.3 °F 78% 30.38 in 10.0 mi NE 3.5 mph - N/A   Overcast
12:35 AM 55.9 °F 49.3 °F 78% 30.38 in 10.0 mi ENE 4.6 mph - N/A   Overcast
12:55 AM 55.8 °F 50.0 °F 81% 30.37 in 10.0 mi ENE 4.6 mph - N/A Thunderstorm Thunderstorm
1:15 AM 54.9 °F 50.9 °F 86% 30.36 in 10.0 mi NE 3.5 mph - N/A   Overcast
1:35 AM 55.6 °F 49.3 °F 79% 30.36 in 10.0 mi Calm Calm - N/A   Overcast
1:55 AM 55.4 °F 49.3 °F 80% 30.36 in 10.0 mi Calm Calm - N/A   Mostly Cloudy
2:15 AM 54.9 °F 49.3 °F 81% 30.35 in 10.0 mi Calm Calm - N/A   Scattered Clouds
2:35 AM 55.2 °F 50.0 °F 83% 30.36 in 10.0 mi South 3.5 mph - N/A   Overcast
2:55 AM 54.7 °F 51.4 °F 89% 30.35 in 10.0 mi Calm Calm - N/A   Mostly Cloudy
3:15 AM 54.5 °F 50.5 °F 86% 30.35 in 10.0 mi Calm Calm - N/A   Mostly Cloudy
3:35 AM 53.6 °F 51.8 °F 94% 30.34 in 10.0 mi WNW 3.5 mph - N/A   Overcast
3:55 AM 55.6 °F 49.1 °F 79% 30.34 in 10.0 mi NW 6.9 mph - N/A   Overcast
4:15 AM 55.4 °F 48.7 °F 78% 30.33 in 10.0 mi North 3.5 mph - N/A Rain Light Rain
4:35 AM 54.0 °F 50.5 °F 88% 30.33 in 10.0 mi East 3.5 mph - N/A   Mostly Cloudy
4:55 AM 52.9 °F 51.4 °F 95% 30.33 in 10.0 mi Calm Calm - N/A   Mostly Cloudy
5:15 AM 52.9 °F 51.4 °F 95% 30.34 in 10.0 mi Calm Calm - N/A   Overcast
5:35 AM 53.6 °F 51.1 °F 91% 30.34 in 10.0 mi Calm Calm - N/A   Overcast
5:55 AM 54.0 °F 51.8 °F 92% 30.34 in 10.0 mi Calm Calm - N/A   Overcast
6:15 AM 52.7 °F 50.2 °F 91% 30.34 in 10.0 mi Calm Calm - N/A   Mostly Cloudy
6:35 AM 52.0 °F 49.6 °F 92% 30.34 in 10.0 mi Calm Calm - N/A   Scattered Clouds
6:55 AM 50.9 °F 49.5 °F 95% 30.34 in 10.0 mi Calm Calm - N/A   Scattered Clouds
7:15 AM 51.3 °F 50.0 °F 95% 30.34 in 10.0 mi Calm Calm - N/A   Mostly Cloudy
7:35 AM 51.6 °F 49.6 °F 93% 30.35 in 10.0 mi Calm Calm - N/A   Overcast
7:55 AM 53.1 °F 48.4 °F 84% 30.35 in 10.0 mi Calm Calm - N/A   Scattered Clouds
8:15 AM 54.7 °F 49.8 °F 84% 30.35 in 10.0 mi Calm Calm - N/A   Scattered Clouds
8:35 AM 54.7 °F 49.3 °F 82% 30.35 in 10.0 mi Calm Calm - N/A   Overcast
8:55 AM 56.1 °F 49.5 °F 78% 30.35 in 10.0 mi Calm Calm - N/A   Overcast
9:15 AM 56.5 °F 49.8 °F 78% 30.34 in 10.0 mi Calm Calm - N/A   Mostly Cloudy
9:35 AM 58.6 °F 50.5 °F 74% 30.35 in 10.0 mi Calm Calm - N/A Thunderstorm Scattered Clouds
9:55 AM 60.4 °F 48.2 °F 64% 30.34 in 10.0 mi Calm Calm - N/A   Clear
10:15 AM 61.9 °F 48.2 °F 61% 30.34 in 10.0 mi Calm Calm - N/A   Clear
10:35 AM 62.2 °F 48.6 °F 61% 30.34 in 10.0 mi West 3.5 mph - N/A   Clear
10:55 AM 63.3 °F 48.0 °F 57% 30.33 in 10.0 mi WSW 4.6 mph - N/A   Scattered Clouds
11:15 AM 63.9 °F 48.6 °F 57% 30.33 in 10.0 mi South 8.1 mph - N/A   Clear
11:35 AM 64.4 °F 47.7 °F 55% 30.32 in 10.0 mi South 3.5 mph - N/A   Clear
11:55 AM 65.3 °F 48.4 °F 54% 30.31 in 10.0 mi South 4.6 mph - N/A Thunderstorm Thunderstorm
12:15 PM 65.7 °F 47.1 °F 51% 30.30 in 10.0 mi South 4.6 mph - N/A   Mostly Cloudy
12:35 PM 66.9 °F 45.3 °F 46% 30.29 in 10.0 mi SSE 4.6 mph - N/A   Scattered Clouds
12:55 PM 68.0 °F 44.6 °F 43% 30.28 in 10.0 mi SW 5.8 mph - N/A   Scattered Clouds
1:15 PM 67.1 °F 46.6 °F 48% 30.28 in 10.0 mi South 5.8 mph - N/A   Scattered Clouds
1:35 PM 68.5 °F 45.9 °F 44% 30.26 in 10.0 mi South 8.1 mph - N/A   Scattered Clouds
1:55 PM 68.4 °F 46.2 °F 45% 30.25 in 10.0 mi South 6.9 mph - N/A   Scattered Clouds
2:15 PM 69.3 °F 46.9 °F 45% 30.24 in 10.0 mi South 5.8 mph - N/A   Scattered Clouds
2:35 PM 70.2 °F 46.6 °F 43% 30.23 in 10.0 mi SSE 8.1 mph - N/A   Mostly Cloudy
2:55 PM 69.4 °F 45.9 °F 43% 30.22 in 10.0 mi South 6.9 mph - N/A   Mostly Cloudy
3:15 PM 69.6 °F 46.0 °F 43% 30.22 in 10.0 mi SSW 3.5 mph - N/A   Scattered Clouds
3:35 PM 68.9 °F 46.9 °F 45% 30.21 in 10.0 mi West 4.6 mph - N/A   Mostly Cloudy
3:55 PM 71.2 °F 44.4 °F 38% 30.20 in 10.0 mi SSW 6.9 mph - N/A   Overcast
4:15 PM 70.7 °F 42.8 °F 36% 30.19 in 10.0 mi SW 5.8 mph - N/A   Overcast
4:35 PM 69.8 °F 43.7 °F 39% 30.19 in 10.0 mi SW 5.8 mph - N/A   Mostly Cloudy
4:55 PM 72.0 °F 43.7 °F 36% 30.19 in 10.0 mi SSW 8.1 mph - N/A   Mostly Cloudy
5:15 PM 70.7 °F 43.7 °F 38% 30.18 in 10.0 mi WSW 4.6 mph - N/A   Scattered Clouds
5:35 PM 70.7 °F 43.9 °F 38% 30.18 in 10.0 mi South 5.8 mph - N/A   Mostly Cloudy
5:55 PM 70.3 °F 42.8 °F 37% 30.17 in 10.0 mi SSW 4.6 mph - N/A   Mostly Cloudy
6:15 PM 70.5 °F 44.8 °F 40% 30.18 in 10.0 mi Calm Calm - N/A   Mostly Cloudy
6:35 PM 68.7 °F 46.0 °F 44% 30.17 in 10.0 mi Calm Calm - N/A   Mostly Cloudy
6:55 PM 67.8 °F 48.7 °F 50% 30.16 in 10.0 mi Calm Calm - N/A   Clear
7:15 PM 63.7 °F 52.0 °F 66% 30.17 in 10.0 mi Calm Calm - N/A   Clear
7:35 PM 63.0 °F 50.5 °F 64% 30.16 in 10.0 mi Calm Calm - N/A   Clear
7:55 PM 61.2 °F 52.7 °F 74% 30.17 in 10.0 mi NE 4.6 mph - N/A   Clear
8:15 PM 61.5 °F 50.7 °F 68% 30.18 in 10.0 mi Calm Calm - N/A   Clear
8:35 PM 61.2 °F 51.3 °F 70% 30.17 in 10.0 mi Calm Calm - N/A   Scattered Clouds
8:55 PM 60.3 °F 52.2 °F 75% 30.18 in 10.0 mi Calm Calm - N/A   Mostly Cloudy
9:15 PM 60.4 °F 49.8 °F 68% 30.19 in 10.0 mi ENE 3.5 mph - N/A   Overcast
9:35 PM 59.5 °F 49.5 °F 69% 30.19 in 10.0 mi Calm Calm - N/A   Overcast
9:55 PM 59.0 °F 49.5 °F 71% 30.19 in 10.0 mi Calm Calm - N/A   Overcast
10:15 PM 59.0 °F 48.9 °F 69% 30.18 in 10.0 mi Calm Calm - N/A   Overcast
10:35 PM 59.0 °F 50.0 °F 72% 30.19 in 10.0 mi Calm Calm - N/A Thunderstorm Overcast
10:55 PM 58.1 °F 49.6 °F 73% 30.19 in 10.0 mi Calm Calm - N/A Thunderstorm Overcast
11:15 PM 59.5 °F 49.1 °F 68% 30.19 in 10.0 mi WNW 5.8 mph - N/A Thunderstorm Thunderstorm
11:35 PM 56.8 °F 53.8 °F 89% 30.20 in 4.0 mi NW 5.8 mph - N/A Rain , Thunderstorm Heavy Thunderstorms and Rain
11:55 PM 56.1 °F 54.0 °F 92% 30.19 in 1.8 mi Calm Calm - N/A Rain , Thunderstorm Light Thunderstorms and Rain